Location: Montr�al
(45.5000°N, 73.5830°W)
Time: 04:58:46
(UTC-04:00)

Cosmos 1151 Rocket - Visible Passes

Search period start: 20 October 2017 00:00
Search period end: 30 October 2017 00:00
Orbit: 594 x 615 km, 82.5° (Epoch: 19 October)

Date Brightness Start Highest point End Pass type
(mag) Time Alt. Az. Time Alt. Az. Time Alt. Az.
21 Oct 6.0 06:24:15 10° NNE 06:26:57 16° ENE 06:29:36 10° ESE visible
22 Oct 5.6 06:36:20 10° NNE 06:39:55 24° ENE 06:43:28 10° SE visible
23 Oct 4.7 06:48:44 10° N 06:52:50 38° ENE 06:56:52 10° SE visible
24 Oct6.521:20:07N21:20:07N21:08:45SWvisible
25 Oct 6.3 05:38:57 10° NE 05:40:15 11° ENE 05:41:33 10° E visible
25 Oct 4.3 19:45:01 10° S 19:55:23 - NNE 19:47:01 26° SSE visible
25 Oct6.221:32:11N21:32:11N21:24:03WSWvisible
26 Oct 6.0 05:50:22 10° NNE 05:53:17 17° ENE 05:56:12 10° ESE visible
26 Oct 2.9 19:57:36 10° S 20:01:59 89° E 20:03:15 46° N visible
26 Oct 6.3 21:39:53 10° WNW 21:40:14 10° WNW 21:40:29 10° WNW visible
27 Oct 5.3 06:02:32 10° NNE 06:06:15 27° ENE 06:09:56 10° SE visible
27 Oct 4.6 18:35:19 10° ESE 18:37:43 15° E 18:40:07 10° NE visible
27 Oct 3.6 20:10:28 10° SSW 20:14:46 56° WNW 20:19:07 10° N visible
28 Oct 4.4 06:15:00 10° N 06:19:09 42° ENE 06:23:15 10° SSE visible
28 Oct 4.1 18:46:49 10° SE 18:50:16 23° E 18:53:43 10° NE visible
28 Oct 4.6 20:23:38 10° SW 20:27:38 34° WNW 20:31:39 10° N visible
29 Oct 3.4 06:27:36 10° N 06:31:58 70° E 06:36:16 10° SSE visible
29 Oct 3.5 18:58:51 10° SSE 19:02:52 36° E 19:06:54 10° NNE visible
29 Oct 5.4 20:37:07 10° WSW 20:40:33 22° WNW 20:44:00 10° NNW visible
